| time (UTC) | temp F | wind direction | speed MPH | gust MPH | rain 1hr in | rain 24hr in | rain mn in | humidity % | barometer mb |
| 20260507103054 | 47 | 0 | 0.0 | 0.0 | 0.00 | 0.00 | 0.00 | 79 | 1019.4 |
| 20260507101557 | 47 | 0 | 0.0 | 0.0 | 0.00 | 0.00 | 0.00 | 78 | 1019.3 |
| 20260507100058 | 48 | 0 | 0.0 | 0.0 | 0.00 | 0.00 | 0.00 | 76 | 1019.4 |
| 20260507094553 | 48 | 0 | 0.0 | 0.0 | 0.00 | 0.00 | 0.00 | 76 | 1019.2 |
| 20260507093052 | 48 | 0 | 0.0 | 0.0 | 0.00 | 0.00 | 0.00 | 77 | 1018.9 |
| 20260507091600 | 48 | 0 | 0.0 | 0.0 | 0.00 | 0.00 | 0.00 | 76 | 1019.2 |
| 20260507090051 | 48 | 0 | 0.0 | 0.0 | 0.00 | 0.00 | 0.00 | 76 | 1019.4 |
| 20260507084552 | 49 | 0 | 0.0 | 0.0 | 0.00 | 0.00 | 0.00 | 75 | 1019.5 |
| 20260507083053 | 49 | 0 | 0.0 | 0.0 | 0.00 | 0.00 | 0.00 | 75 | 1019.5 |
| 20260507081555 | 49 | 0 | 0.0 | 0.0 | 0.00 | 0.00 | 0.00 | 74 | 1019.4 |
| 20260507080056 | 50 | 0 | 0.0 | 0.0 | 0.00 | 0.00 | 0.00 | 74 | 1019.2 |
| 20260507074606 | 50 | 0 | 0.0 | 0.0 | 0.00 | 0.00 | 0.00 | 73 | 1019.2 |
| 20260507073054 | 50 | 0 | 0.0 | 0.0 | 0.00 | 0.00 | 0.00 | 72 | 1019.5 |
| 20260507071554 | 50 | 0 | 0.0 | 0.0 | 0.00 | 0.00 | 0.00 | 72 | 1019.4 |
| 20260507070109 | 50 | 0 | 0.0 | 0.0 | 0.00 | 0.00 | 0.00 | 72 | 1019.8 |
| 20260507064602 | 51 | 0 | 0.0 | 0.0 | 0.00 | 0.00 | 0.00 | 71 | 1019.9 |
| 20260507063058 | 51 | 0 | 0.0 | 2.0 | 0.00 | 0.00 | 0.00 | 70 | 1019.9 |
| 20260507061553 | 51 | 0 | 0.0 | 1.0 | 0.00 | 0.00 | 0.00 | 69 | 1019.8 |
| 20260507060055 | 52 | 0 | 0.0 | 4.0 | 0.00 | 0.00 | 0.00 | 69 | 1019.5 |
| 20260507054554 | 52 | 0 | 0.0 | 5.0 | 0.00 | 0.00 | 0.00 | 68 | 1019.2 |
| 20260507053049 | 53 | 0 | 0.0 | 5.0 | 0.00 | 0.00 | 0.00 | 66 | 1019.4 |
| 20260507051557 | 53 | 13 | 1.0 | 5.0 | 0.00 | 0.00 | 0.00 | 64 | 1019.1 |
| 20260507050056 | 53 | 0 | 0.0 | 0.0 | 0.00 | 0.00 | 0.00 | 66 | 1019.2 |
| 20260507044554 | 53 | 0 | 0.0 | 0.0 | 0.00 | 0.00 | 0.00 | 66 | 1019.1 |
| 20260507043054 | 54 | 0 | 0.0 | 0.0 | 0.00 | 0.00 | 0.00 | 65 | 1019.1 |
| 20260507041553 | 55 | 0 | 0.0 | 0.0 | 0.00 | 0.00 | 0.00 | 64 | 1019.0 |
| 20260507040049 | 55 | 0 | 0.0 | 5.0 | 0.00 | 0.00 | 0.00 | 60 | 1019.0 |
| 20260507034552 | 55 | 14 | 0.0 | 7.0 | 0.00 | 0.00 | 0.00 | 59 | 1019.1 |
| 20260507033056 | 55 | 0 | 0.0 | 4.0 | 0.00 | 0.00 | 0.00 | 58 | 1018.8 |
| 20260507031554 | 56 | 14 | 1.0 | 7.0 | 0.00 | 0.00 | 0.00 | 58 | 1018.7 |
| 20260507030057 | 56 | 14 | 1.0 | 9.0 | 0.00 | 0.00 | 0.00 | 58 | 1018.6 |
| 20260507024552 | 57 | 14 | 2.0 | 8.0 | 0.00 | 0.00 | 0.00 | 57 | 1018.5 |
| 20260507023052 | 57 | 13 | 2.0 | 9.0 | 0.00 | 0.00 | 0.00 | 56 | 1018.2 |
| 20260507021553 | 58 | 13 | 3.0 | 10.0 | 0.00 | 0.00 | 0.00 | 56 | 1018.2 |
| 20260507020051 | 58 | 13 | 1.0 | 7.0 | 0.00 | 0.00 | 0.00 | 56 | 1017.9 |
| 20260507014557 | 58 | 0 | 1.0 | 5.0 | 0.00 | 0.00 | 0.00 | 55 | 1017.7 |
| 20260507013111 | 59 | 0 | 1.0 | 4.0 | 0.00 | 0.00 | 0.00 | 55 | 1017.5 |
| 20260507011552 | 59 | 0 | 0.0 | 2.0 | 0.00 | 0.00 | 0.00 | 54 | 1017.4 |
| 20260507010108 | 60 | 0 | 0.0 | 1.0 | 0.00 | 0.00 | 0.00 | 53 | 1017.1 |
| 20260507004551 | 60 | 15 | 0.0 | 7.0 | 0.00 | 0.00 | 0.00 | 53 | 1017.1 |
| 20260507003047 | 60 | 15 | 1.0 | 7.0 | 0.00 | 0.00 | 0.00 | 52 | 1016.9 |
| 20260507001557 | 61 | 0 | 0.0 | 8.0 | 0.00 | 0.00 | 0.00 | 52 | 1016.7 |
| 20260507000059 | 61 | 15 | 4.0 | 11.0 | 0.00 | 0.00 | 0.00 | 52 | 1016.7 |
| 20260506234554 | 61 | 13 | 1.0 | 11.0 | 0.00 | 0.00 | 0.00 | 53 | 1016.7 |
| 20260506233104 | 61 | 0 | 0.0 | 4.0 | 0.00 | 0.00 | 0.00 | 53 | 1016.7 |
| 20260506231553 | 62 | 19 | 2.0 | 9.0 | 0.00 | 0.00 | 0.00 | 52 | 1016.5 |
| 20260506224546 | 62 | 14 | 2.0 | 11.0 | 0.00 | 0.00 | 0.00 | 53 | 1016.3 |
| 20260506223053 | 62 | 15 | 1.0 | 10.0 | 0.00 | 0.00 | 0.00 | 54 | 1015.9 |
| 20260506221558 | 62 | 13 | 4.0 | 10.0 | 0.00 | 0.00 | 0.00 | 54 | 1015.8 |
| 20260506220056 | 61 | 15 | 3.0 | 9.0 | 0.00 | 0.00 | 0.00 | 53 | 1015.9 |
| 20260506214552 | 62 | 11 | 2.0 | 11.0 | 0.00 | 0.00 | 0.00 | 54 | 1015.8 |
| 20260506213052 | 62 | 17 | 2.0 | 9.0 | 0.00 | 0.00 | 0.00 | 53 | 1015.9 |
| 20260506211554 | 62 | 14 | 1.0 | 11.0 | 0.00 | 0.00 | 0.00 | 57 | 1015.8 |
| 20260506210052 | 61 | 11 | 1.0 | 11.0 | 0.00 | 0.00 | 0.00 | 57 | 1016.0 |
| 20260506204551 | 61 | 0 | 2.0 | 8.0 | 0.00 | 0.00 | 0.00 | 55 | 1016.3 |
| 20260506203052 | 61 | 15 | 2.0 | 11.0 | 0.00 | 0.00 | 0.00 | 56 | 1016.3 |
| 20260506201553 | 61 | 14 | 3.0 | 12.0 | 0.00 | 0.00 | 0.00 | 56 | 1016.5 |
| 20260506200055 | 61 | 15 | 1.0 | 8.0 | 0.00 | 0.00 | 0.00 | 57 | 1017.0 |
| 20260506194554 | 62 | 13 | 1.0 | 7.0 | 0.00 | 0.00 | 0.00 | 58 | 1016.9 |
| 20260506193047 | 61 | 13 | 1.0 | 8.0 | 0.00 | 0.00 | 0.00 | 59 | 1016.7 |
| 20260506191553 | 60 | 15 | 1.0 | 10.0 | 0.00 | 0.00 | 0.00 | 57 | 1017.0 |
| 20260506190057 | 60 | 14 | 2.0 | 10.0 | 0.00 | 0.00 | 0.00 | 58 | 1017.4 |
| 20260506184553 | 60 | 13 | 1.0 | 8.0 | 0.00 | 0.00 | 0.00 | 59 | 1017.4 |
| 20260506183048 | 60 | 16 | 1.0 | 10.0 | 0.00 | 0.00 | 0.00 | 56 | 1017.6 |
| 20260506181552 | 59 | 17 | 1.0 | 10.0 | 0.00 | 0.00 | 0.00 | 59 | 1017.6 |
| 20260506180055 | 59 | 15 | 2.0 | 13.0 | 0.00 | 0.00 | 0.00 | 58 | 1017.8 |
| 20260506174552 | 59 | 14 | 2.0 | 10.0 | 0.00 | 0.00 | 0.00 | 58 | 1017.8 |
| 20260506173106 | 59 | 0 | 2.0 | 10.0 | 0.00 | 0.00 | 0.00 | 57 | 1018.1 |
| 20260506171553 | 58 | 12 | 4.0 | 11.0 | 0.00 | 0.00 | 0.00 | 59 | 1018.6 |
| 20260506170105 | 57 | 16 | 3.0 | 10.0 | 0.00 | 0.00 | 0.00 | 59 | 1018.9 |
| 20260506164606 | 56 | 15 | 2.0 | 11.0 | 0.00 | 0.00 | 0.00 | 61 | 1019.1 |
| 20260506163058 | 56 | 13 | 2.0 | 10.0 | 0.00 | 0.00 | 0.00 | 61 | 1018.8 |
| 20260506161553 | 56 | 13 | 2.0 | 13.0 | 0.00 | 0.00 | 0.00 | 61 | 1018.7 |
| 20260506160106 | 56 | 14 | 2.0 | 10.0 | 0.00 | 0.00 | 0.00 | 62 | 1018.6 |
| 20260506154555 | 55 | 15 | 1.0 | 7.0 | 0.00 | 0.00 | 0.00 | 65 | 1018.2 |
| 20260506153046 | 54 | 14 | 1.0 | 5.0 | 0.00 | 0.00 | 0.00 | 64 | 1017.8 |
| 20260506151553 | 53 | 15 | 2.0 | 12.0 | 0.00 | 0.00 | 0.00 | 66 | 1017.4 |
| 20260506150054 | 52 | 15 | 2.0 | 13.0 | 0.00 | 0.00 | 0.00 | 66 | 1017.4 |
| 20260506144553 | 51 | 17 | 1.0 | 10.0 | 0.00 | 0.00 | 0.00 | 68 | 1017.4 |
| 20260506143051 | 51 | 15 | 2.0 | 11.0 | 0.00 | 0.00 | 0.00 | 71 | 1017.4 |
| 20260506141609 | 50 | 14 | 1.0 | 13.0 | 0.00 | 0.00 | 0.00 | 73 | 1017.3 |
| 20260506140048 | 49 | 15 | 3.0 | 17.0 | 0.00 | 0.00 | 0.00 | 73 | 1017.5 |
| 20260506134553 | 49 | 15 | 3.0 | 21.0 | 0.00 | 0.00 | 0.00 | 73 | 1017.4 |
| 20260506133059 | 49 | 15 | 2.0 | 11.0 | 0.00 | 0.00 | 0.00 | 76 | 1017.6 |
| 20260506131555 | 48 | 15 | 3.0 | 16.0 | 0.00 | 0.00 | 0.00 | 75 | 1017.5 |
| 20260506130048 | 48 | 16 | 3.0 | 13.0 | 0.00 | 0.00 | 0.00 | 76 | 1017.3 |
| 20260506124553 | 48 | 17 | 2.0 | 12.0 | 0.00 | 0.00 | 0.00 | 80 | 1017.3 |
| 20260506123055 | 47 | 15 | 2.0 | 14.0 | 0.00 | 0.00 | 0.00 | 81 | 1017.0 |
| 20260506121555 | 47 | 15 | 2.0 | 12.0 | 0.00 | 0.00 | 0.00 | 81 | 1016.8 |
| 20260506120115 | 47 | 15 | 3.0 | 12.0 | 0.00 | 0.00 | 0.00 | 80 | 1016.3 |
| 20260506114548 | 48 | 0 | 1.0 | 10.0 | 0.00 | 0.00 | 0.00 | 80 | 1016.3 |
| 20260506113051 | 48 | 13 | 2.0 | 13.0 | 0.00 | 0.00 | 0.00 | 80 | 1016.5 |
| 20260506111549 | 48 | 0 | 3.0 | 15.0 | 0.00 | 0.00 | 0.00 | 79 | 1016.4 |
| 20260506110048 | 48 | 13 | 3.0 | 14.0 | 0.00 | 0.00 | 0.00 | 79 | 1016.2 |
| 20260506104552 | 48 | 15 | 4.0 | 13.0 | 0.00 | 0.00 | 0.00 | 79 | 1015.8 |